Regional Weather Roundup
Issued by NWS

Home | Current Version | Previous Version | Graphics & Text | Print | Product List | Glossary Off
Versions: 1 2 3 4 5 6 7 8 9 10 11 12 13 14 15 16 17 18 19 20 21 22 23 24 25 26 27 28 29 30 31 32 33 34 35 36 37 38 39 40 41 42 43 44 45 46 47 48 49 50

000
ASUS43 KDMX 281407
RWRIA

WEATHER ROUNDUP FOR IOWA
NATIONAL WEATHER SERVICE DES MOINES IA
900 AM CDT MON JUL 28 2014

NOTE: "FAIR" INDICATES FEW OR NO CLOUDS BELOW 12,000 FEET WITH NO
SIGNIFICANT WEATHER AND/OR OBSTRUCTIONS TO VISIBILITY.

* - THESE STATIONS ARE NOT NWS STATIONS...THUS NOT UNDER NWS
QUALITY CONTROL.  THEY ALSO DO NOT REPORT WEATHER SUCH
AS PRECIPITATION OR FOG.

IAZ001>003-012>014-020>022-031>034-043>046-281500-
   NORTHWEST IOWA

CITY           SKY/WX    TMP DP  RH WIND       PRES   REMARKS
CARROLL *      PTSUNNY   63  59  88 N8        30.23R
CHEROKEE *     CLOUDY    61  59  94 N8        30.26R
DENISON *      CLOUDY    61  59  94 N6        30.23S
LE MARS *      CLOUDY    64  59  82 N8G15     30.27R
ORANGE CITY *  SUNNY     64  57  77 N10       30.26S
SHELDON *      CLOUDY    61  59  94 N9        30.25S
SIOUX CITY     PTSUNNY   67  58  72 N9        30.26S
SPENCER        CLOUDY    63  59  87 N9        30.25R
STORM LAKE *   PTSUNNY   63  63 100 NW7       30.25S
$$

IAZ055>058-069>071-079>083-090>094-281500-
   SOUTHWEST IOWA

CITY           SKY/WX    TMP DP  RH WIND       PRES   REMARKS
ATLANTIC *     CLOUDY    61  59  94 N9        30.23S
AUDUBON *      SUNNY     66  63  88 N8        30.24S
CLARINDA *     CLOUDY    63  59  88 NE7       30.25R
COUNCIL BLFS * CLOUDY    64  59  82 N7G13     30.25R
CRESTON *      CLOUDY    63  57  82 N10       30.23R
HARLAN  *      SUNNY     63  59  88 N10       30.28R
LAMONI         CLOUDY    64  58  80 N12       30.21R
RED OAK *      CLOUDY    63  59  88 N8        30.24S
SHENANDOAH *   PTSUNNY   63  59  88 N9        30.25S
$$

IAZ047>049-059>061-072>074-084-281500-
   CENTRAL IOWA

CITY           SKY/WX    TMP DP  RH WIND       PRES   REMARKS
AMES           SUNNY     66  56  70 NE7       30.21R
ANKENY *       SUNNY     66  57  72 N7        30.21R
CHARITON *     PTSUNNY   64  57  77 N8G15     30.20R
DES MOINES     MOSUNNY   68  55  63 NE7       30.20R
GRINNELL*      SUNNY     63  55  77 NE6       30.19S
KNOXVILLE *    SUNNY     64  55  72 NE10      30.19R
MARSHALLTOWN   MOSUNNY   65  56  72 N12       30.19S
PELLA *        SUNNY     66  57  72 N6        30.20R
PERRY *          N/A     64  59  82 N3        30.22R
$$

IAZ004>006-015-016-023>025-035-036-281500-
   NORTH CENTRAL IOWA

CITY           SKY/WX    TMP DP  RH WIND       PRES   REMARKS
ALGONA *       CLOUDY    63  61  94 N5        30.24R
CLARION *      PTSUNNY   63  59  88 N3        30.22S
ESTHERVILLE    CLOUDY    63  60  90 N7        30.24R
FORT DODGE *   PTSUNNY   64  59  82 NE6       30.23S
MASON CITY     CLOUDY    65  56  72 N9        30.23R
FOREST CITY *  CLOUDY    64  59  82 N8G16     30.22S
IOWA FALLS *     N/A     64  55  72 N5        30.21S
$$

IAZ007>011-017>019-026>030-037>042-050>054-066-281500-
   NORTHEAST IOWA

CITY           SKY/WX    TMP DP  RH WIND       PRES   REMARKS
CEDAR RAPIDS   SUNNY     65  52  62 N13       30.16R
CHARLES CITY * PTSUNNY   64  57  77 N7        30.21R
CLINTON *      SUNNY     63  52  67 N14       30.17R
DECORAH *      CLOUDY    64  57  77 VRB6      30.18S
DUBUQUE        SUNNY     62  51  67 N15       30.15R
MONTICELLO *   SUNNY     64  55  72 N10       30.16R
OELWEIN *      SUNNY     63  55  77 N10       30.20R
WATERLOO       SUNNY     64  56  75 N12       30.18R
$$

IAZ064-065-067-068-078-281500-
   EAST CENTRAL IOWA

CITY           SKY/WX    TMP DP  RH WIND       PRES   REMARKS
DAVENPORT      SUNNY     64  54  69 N14       30.14R
IOWA CITY      SUNNY     66  54  65 N10       30.17R
MT. PLEASANT * SUNNY     66  57  72 N12       30.15R
MUSCATINE *    SUNNY     66  55  68 N10       30.15R
QUAD CITIES    SUNNY     65  51  60 N12G17    30.13R
$$

IAZ062-063-075>077-085>089-095>099-281500-
   SOUTHEAST IOWA

CITY           SKY/WX    TMP DP  RH WIND       PRES   REMARKS
BURLINGTON     SUNNY     66  55  67 N15       30.13R
FAIRFIELD *    SUNNY     64  57  77 N10G16    30.17R
FORT MADISON * MOSUNNY   66  59  77 N10G18    30.15R
KEOKUK *       PTSUNNY   66  59  77 NE12      30.13R
OSKALOOSA *      N/A     63  57  82 N9        30.19R
CENTERVILLE *  PTSUNNY   64  59  82 N8        30.20R
OTTUMWA        SUNNY     65  57  75 N12       30.17R
WASHINGTON *   SUNNY     64  57  77 N9G15     30.17R
$$

ABBREVIATIONS USED IN REMARKS
   TC - TEMPERATURES IN CELSIUS
  WCI - WIND CHILL INDEX
   HX - HEAT INDEX
  VSB - VISIBILITY
$$



USA.gov is the U.S. government's official web portal to all federal, state and local government web resources and services.